#Datum;Uhrzeit;WR;Pac;DaySum;Status;WR;Pac;DaySum;Status;Pdc1;Udc;Temp;WR;Pac;DaySum;Status;Pdc1;Udc;Temp;WR;Pac;DaySum;Status;Pdc1;Udc;Temp;WR;Pac;DaySum;Status;Pdc1;Pdc2;Udc1;Udc2;Temp;WR;Pac;DaySum;Status;Pdc1;Pdc2;Udc1;Udc2;Temp;WR;Pac;DaySum;Status;Pdc1;Udc;Temp;WR;Pac;DaySum;Status;Pdc1;Udc;Temp;WR;Pac;DaySum;Status;Pdc1;Udc;Temp
28.11.21;23:55:00;1;650;12345;0;2;0;1947;0;0;0;0;3;0;868;0;0;0;0;4;0;1042;0;0;0;0;5;0;4147;0;0;0;0;0;0;6;0;3420;0;0;0;0;0;0;7;0;1435;0;0;0;0;8;0;1612;0;0;0;0;9;0;846;0;0;0;0
28.11.21;23:50:00;1;637;12290;0;2;0;1947;0;0;0;0;3;0;868;0;0;0;0;4;0;1042;0;0;0;0;5;0;4147;0;0;0;0;0;0;6;0;3420;0;0;0;0;0;0;7;0;1435;0;0;0;0;8;0;1612;0;0;0;0;9;0;846;0;0;0;0
28.11.21;23:45:00;1;686;12237;0;2;0;1947;0;0;0;0;3;0;868;0;0;0;0;4;0;1042;0;0;0;0;5;0;4147;0;0;0;0;0;0;6;0;3420;0;0;0;0;0;0;7;0;1435;0;0;0;0;8;0;1612;0;0;0;0;9;0;846;0;0;0;0
28.11.21;23:40:00;1;903;12164;0;2;0;1947;0;0;0;0;3;0;868;0;0;0;0;4;0;1042;0;0;0;0;5;0;4147;0;0;0;0;0;0;6;0;3420;0;0;0;0;0;0;7;0;1435;0;0;0;0;8;0;1612;0;0;0;0;9;0;846;0;0;0;0
28.11.21;23:35:00;1;758;12105;0;2;0;1947;0;0;0;0;3;0;868;0;0;0;0;4;0;1042;0;0;0;0;5;0;4147;0;0;0;0;0;0;6;0;3420;0;0;0;0;0;0;7;0;1435;0;0;0;0;8;0;1612;0;0;0;0;9;0;846;0;0;0;0
28.11.21;23:30:00;1;754;12042;0;2;0;1947;0;0;0;0;3;0;868;0;0;0;0;4;0;1042;0;0;0;0;5;0;4147;0;0;0;0;0;0;6;0;3420;0;0;0;0;0;0;7;0;1435;0;0;0;0;8;0;1612;0;0;0;0;9;0;846;0;0;0;0
28.11.21;23:25:00;1;751;11979;0;2;0;1947;0;0;0;0;3;0;868;0;0;0;0;4;0;1042;0;0;0;0;5;0;4147;0;0;0;0;0;0;6;0;3420;0;0;0;0;0;0;7;0;1435;0;0;0;0;8;0;1612;0;0;0;0;9;0;846;0;0;0;0
28.11.21;23:20:00;1;728;11916;0;2;0;1947;0;0;0;0;3;0;868;0;0;0;0;4;0;1042;0;0;0;0;5;0;4147;0;0;0;0;0;0;6;0;3420;0;0;0;0;0;0;7;0;1435;0;0;0;0;8;0;1612;0;0;0;0;9;0;846;0;0;0;0
28.11.21;23:15:00;1;706;11855;0;2;0;1947;0;0;0;0;3;0;868;0;0;0;0;4;0;1042;0;0;0;0;5;0;4147;0;0;0;0;0;0;6;0;3420;0;0;0;0;0;0;7;0;1435;0;0;0;0;8;0;1612;0;0;0;0;9;0;846;0;0;0;0
28.11.21;23:10:00;1;693;11795;0;2;0;1947;0;0;0;0;3;0;868;0;0;0;0;4;0;1042;0;0;0;0;5;0;4147;0;0;0;0;0;0;6;0;3420;0;0;0;0;0;0;7;0;1435;0;0;0;0;8;0;1612;0;0;0;0;9;0;846;0;0;0;0
28.11.21;23:08:00;1;688;11784;0;2;0;1947;0;0;0;0;3;0;868;0;0;0;0;4;0;1042;0;0;0;0;5;0;4147;0;0;0;0;0;0;6;0;3420;0;0;0;0;0;0;7;0;1435;0;0;0;0;8;0;1612;0;0;0;0;9;0;846;0;0;0;0
28.11.21;23:00:00;1;723;11666;0;2;0;1947;0;0;0;0;3;0;868;0;0;0;0;4;0;1042;0;0;0;0;5;0;4147;0;0;0;0;0;0;6;0;3420;0;0;0;0;0;0;7;0;1435;0;0;0;0;8;0;1612;0;0;0;0;9;0;846;0;0;0;0
28.11.21;22:55:00;1;716;11606;0;2;0;1947;0;0;0;0;3;0;868;0;0;0;0;4;0;1042;0;0;0;0;5;0;4147;2;0;0;0;0;0;6;0;3420;2;0;0;0;0;0;7;0;1435;0;0;0;0;8;0;1612;0;0;0;0;9;0;846;0;0;0;0
28.11.21;22:50:00;1;702;11547;0;2;0;1947;0;0;0;0;3;0;868;0;0;0;0;4;0;1042;0;0;0;0;5;0;4147;2;0;0;0;0;0;6;0;3420;2;0;0;0;0;0;7;0;1435;0;0;0;0;8;0;1612;0;0;0;0;9;0;846;0;0;0;0
28.11.21;22:45:00;1;778;11487;0;2;0;1947;0;0;0;0;3;0;868;0;0;0;0;4;0;1042;0;0;0;0;5;0;4147;2;0;0;0;0;0;6;0;3420;2;0;0;0;0;0;7;0;1435;0;0;0;0;8;0;1612;0;0;0;0;9;0;846;0;0;0;0
28.11.21;22:40:00;1;743;11423;0;2;0;1947;0;0;0;0;3;0;868;0;0;0;0;4;0;1042;0;0;0;0;5;0;4147;2;0;0;0;0;0;6;0;3420;2;0;0;0;0;0;7;0;1435;0;0;0;0;8;0;1612;0;0;0;0;9;0;846;0;0;0;0
28.11.21;22:35:00;1;721;11361;0;2;0;1947;0;0;0;0;3;0;868;0;0;0;0;4;0;1042;0;0;0;0;5;0;4147;2;0;0;0;0;0;6;0;3420;2;0;0;0;0;0;7;0;1435;0;0;0;0;8;0;1612;0;0;0;0;9;0;846;0;0;0;0
28.11.21;22:30:00;1;799;11284;0;2;0;1947;0;0;0;0;3;0;868;0;0;0;0;4;0;1042;0;0;0;0;5;0;4147;2;0;0;0;0;0;6;0;3420;2;0;0;0;0;0;7;0;1435;0;0;0;0;8;0;1612;0;0;0;0;9;0;846;0;0;0;0
28.11.21;22:25:00;1;802;11217;0;2;0;1947;0;0;0;0;3;0;868;0;0;0;0;4;0;1042;0;0;0;0;5;0;4147;2;0;0;0;0;0;6;0;3420;2;0;0;0;0;0;7;0;1435;0;0;0;0;8;0;1612;0;0;0;0;9;0;846;0;0;0;0
28.11.21;22:20:00;1;742;11150;0;2;0;1947;0;0;0;0;3;0;868;0;0;0;0;4;0;1042;0;0;0;0;5;0;4147;2;0;0;0;0;0;6;0;3420;2;0;0;0;0;0;7;0;1435;0;0;0;0;8;0;1612;0;0;0;0;9;0;846;0;0;0;0
28.11.21;22:15:00;1;754;11088;0;2;0;1947;0;0;0;0;3;0;868;0;0;0;0;4;0;1042;0;0;0;0;5;0;4147;2;0;0;0;0;0;6;0;3420;2;0;0;0;0;0;7;0;1435;0;0;0;0;8;0;1612;0;0;0;0;9;0;846;0;0;0;0
28.11.21;22:10:00;1;754;11025;0;2;0;1947;0;0;0;0;3;0;868;0;0;0;0;4;0;1042;0;0;0;0;5;0;4147;2;0;0;0;0;0;6;0;3420;2;0;0;0;0;0;7;0;1435;0;0;0;0;8;0;1612;0;0;0;0;9;0;846;0;0;0;0
28.11.21;22:05:00;1;763;10962;0;2;0;1947;0;0;0;0;3;0;868;0;0;0;0;4;0;1042;0;0;0;0;5;0;4147;2;0;0;0;0;0;6;0;3420;2;0;0;0;0;0;7;0;1435;0;0;0;0;8;0;1612;0;0;0;0;9;0;846;0;0;0;0
28.11.21;22:00:00;1;761;10899;0;2;0;1947;0;0;0;0;3;0;868;0;0;0;0;4;0;1042;0;0;0;0;5;0;4147;2;0;0;0;0;0;6;0;3420;2;0;0;0;0;0;7;0;1435;0;0;0;0;8;0;1612;0;0;0;0;9;0;846;0;0;0;0
28.11.21;21:55:00;1;998;10835;0;2;0;1947;0;0;0;0;3;0;868;0;0;0;0;4;0;1042;0;0;0;0;5;0;4147;2;0;0;0;0;0;6;0;3420;2;0;0;0;0;0;7;0;1435;0;0;0;0;8;0;1612;0;0;0;0;9;0;846;0;0;0;0
28.11.21;21:50:00;1;721;10753;0;2;0;1947;0;0;0;0;3;0;868;0;0;0;0;4;0;1042;0;0;0;0;5;0;4147;2;0;0;0;0;0;6;0;3420;2;0;0;0;0;0;7;0;1435;0;0;0;0;8;0;1612;0;0;0;0;9;0;846;0;0;0;0
28.11.21;21:45:00;1;758;10693;0;2;0;1947;0;0;0;0;3;0;868;0;0;0;0;4;0;1042;0;0;0;0;5;0;4147;2;0;0;0;0;0;6;0;3420;2;0;0;0;0;0;7;0;1435;0;0;0;0;8;0;1612;0;0;0;0;9;0;846;0;0;0;0
28.11.21;21:40:00;1;802;10630;0;2;0;1947;0;0;0;0;3;0;868;0;0;0;0;4;0;1042;0;0;0;0;5;0;4147;2;0;0;0;0;0;6;0;3420;2;0;0;0;0;0;7;0;1435;0;0;0;0;8;0;1612;0;0;0;0;9;0;846;0;0;0;0
28.11.21;21:35:00;1;826;10563;0;2;0;1947;0;0;0;0;3;0;868;0;0;0;0;4;0;1042;0;0;0;0;5;0;4147;2;0;0;0;0;0;6;0;3420;2;0;0;0;0;0;7;0;1435;0;0;0;0;8;0;1612;0;0;0;0;9;0;846;0;0;0;0
28.11.21;21:30:00;1;818;10494;0;2;0;1947;0;0;0;0;3;0;868;0;0;0;0;4;0;1042;0;0;0;0;5;0;4147;2;0;0;0;0;0;6;0;3420;2;0;0;0;0;0;7;0;1435;0;0;0;0;8;0;1612;0;0;0;0;9;0;846;0;0;0;0
28.11.21;21:25:00;1;1224;10428;0;2;0;1947;0;0;0;0;3;0;868;0;0;0;0;4;0;1042;0;0;0;0;5;0;4147;2;0;0;0;0;0;6;0;3420;2;0;0;0;0;0;7;0;1435;0;0;0;0;8;0;1612;0;0;0;0;9;0;846;0;0;0;0
28.11.21;21:20:00;1;770;10348;0;2;0;1947;0;0;0;0;3;0;868;0;0;0;0;4;0;1042;0;0;0;0;5;0;4147;2;0;0;0;0;0;6;0;3420;2;0;0;0;0;0;7;0;1435;0;0;0;0;8;0;1612;0;0;0;0;9;0;846;0;0;0;0
28.11.21;21:15:00;1;769;10284;0;2;0;1947;0;0;0;0;3;0;868;0;0;0;0;4;0;1042;0;0;0;0;5;0;4147;2;0;0;0;0;0;6;0;3420;2;0;0;0;0;0;7;0;1435;0;0;0;0;8;0;1612;0;0;0;0;9;0;846;0;0;0;0
28.11.21;21:10:00;1;771;10220;0;2;0;1947;0;0;0;0;3;0;868;0;0;0;0;4;0;1042;0;0;0;0;5;0;4147;2;0;0;0;0;0;6;0;3420;2;0;0;0;0;0;7;0;1435;0;0;0;0;8;0;1612;0;0;0;0;9;0;846;0;0;0;0
28.11.21;21:05:00;1;786;10156;0;2;0;1947;0;0;0;0;3;0;868;0;0;0;0;4;0;1042;0;0;0;0;5;0;4147;2;0;0;0;0;0;6;0;3420;2;0;0;0;0;0;7;0;1435;0;0;0;0;8;0;1612;0;0;0;0;9;0;846;0;0;0;0
28.11.21;21:00:00;1;789;10090;0;2;0;1947;0;0;0;0;3;0;868;0;0;0;0;4;0;1042;0;0;0;0;5;0;4147;2;0;0;0;0;0;6;0;3420;2;0;0;0;0;0;7;0;1435;0;0;0;0;8;0;1612;0;0;0;0;9;0;846;0;0;0;0
28.11.21;20:55:00;1;794;10025;0;2;0;1947;0;0;0;0;3;0;868;0;0;0;0;4;0;1042;0;0;0;0;5;0;4147;2;0;0;0;0;0;6;0;3420;2;0;0;0;0;0;7;0;1435;0;0;0;0;8;0;1612;0;0;0;0;9;0;846;0;0;0;0
28.11.21;20:50:00;1;753;9960;0;2;0;1947;0;0;0;0;3;0;868;0;0;0;0;4;0;1042;0;0;0;0;5;0;4147;2;0;0;0;0;0;6;0;3420;2;0;0;0;0;0;7;0;1435;0;0;0;0;8;0;1612;0;0;0;0;9;0;846;0;0;0;0
28.11.21;20:45:00;1;810;9896;0;2;0;1947;0;0;0;0;3;0;868;0;0;0;0;4;0;1042;0;0;0;0;5;0;4147;2;0;0;0;0;0;6;0;3420;2;0;0;0;0;0;7;0;1435;0;0;0;0;8;0;1612;0;0;0;0;9;0;846;0;0;0;0
28.11.21;20:40:00;1;2177;9812;0;2;0;1947;0;0;0;0;3;0;868;0;0;0;0;4;0;1042;0;0;0;0;5;0;4147;2;0;0;0;0;0;6;0;3420;2;0;0;0;0;0;7;0;1435;0;0;0;0;8;0;1612;0;0;0;0;9;0;846;0;0;0;0
28.11.21;20:35:00;1;821;9669;0;2;0;1947;0;0;0;0;3;0;868;0;0;0;0;4;0;1042;0;0;0;0;5;0;4147;2;0;0;0;0;0;6;0;3420;2;0;0;0;0;0;7;0;1435;0;0;0;0;8;0;1612;0;0;0;0;9;0;846;0;0;0;0
28.11.21;20:30:00;1;750;9600;0;2;0;1947;0;0;0;0;3;0;868;0;0;0;0;4;0;1042;0;0;0;0;5;0;4147;2;0;0;0;0;0;6;0;3420;2;0;0;0;0;0;7;0;1435;0;0;0;0;8;0;1612;0;0;0;0;9;0;846;0;0;0;0
28.11.21;20:25:00;1;671;9537;0;2;0;1947;0;0;0;0;3;0;868;0;0;0;0;4;0;1042;0;0;0;0;5;0;4147;2;0;0;0;0;0;6;0;3420;2;0;0;0;0;0;7;0;1435;0;0;0;0;8;0;1612;0;0;0;0;9;0;846;0;0;0;0
28.11.21;20:20:00;1;636;9481;0;2;0;1947;0;0;0;0;3;0;868;0;0;0;0;4;0;1042;0;0;0;0;5;0;4147;2;0;0;0;0;0;6;0;3420;2;0;0;0;0;0;7;0;1435;0;0;0;0;8;0;1612;0;0;0;0;9;0;846;0;0;0;0
28.11.21;20:15:00;1;638;9428;0;2;0;1947;0;0;0;0;3;0;868;0;0;0;0;4;0;1042;0;0;0;0;5;0;4147;2;0;0;0;0;0;6;0;3420;2;0;0;0;0;0;7;0;1435;0;0;0;0;8;0;1612;0;0;0;0;9;0;846;0;0;0;0
28.11.21;20:10:00;1;633;9375;0;2;0;1947;0;0;0;0;3;0;868;0;0;0;0;4;0;1042;0;0;0;0;5;0;4147;2;0;0;0;0;0;6;0;3420;2;0;0;0;0;0;7;0;1435;0;0;0;0;8;0;1612;0;0;0;0;9;0;846;0;0;0;0
28.11.21;20:05:00;1;686;9322;0;2;0;1947;0;0;0;0;3;0;868;0;0;0;0;4;0;1042;0;0;0;0;5;0;4147;2;0;0;0;0;0;6;0;3420;2;0;0;0;0;0;7;0;1435;0;0;0;0;8;0;1612;0;0;0;0;9;0;846;0;0;0;0
28.11.21;20:00:00;1;686;9264;0;2;0;1947;0;0;0;0;3;0;868;0;0;0;0;4;0;1042;0;0;0;0;5;0;4147;2;0;0;0;0;0;6;0;3420;2;0;0;0;0;0;7;0;1435;0;0;0;0;8;0;1612;0;0;0;0;9;0;846;0;0;0;0
28.11.21;19:55:00;1;997;9194;0;2;0;1947;0;0;0;0;3;0;868;0;0;0;0;4;0;1042;0;0;0;0;5;0;4147;2;0;0;0;0;0;6;0;3420;2;0;0;0;0;0;7;0;1435;0;0;0;0;8;0;1612;0;0;0;0;9;0;846;0;0;0;0
28.11.21;19:50:00;1;832;9126;0;2;0;1947;0;0;0;0;3;0;868;0;0;0;0;4;0;1042;0;0;0;0;5;0;4147;2;0;0;0;0;0;6;0;3420;2;0;0;0;0;0;7;0;1435;0;0;0;0;8;0;1612;0;0;0;0;9;0;846;0;0;0;0
28.11.21;19:45:00;1;773;9057;0;2;0;1947;0;0;0;0;3;0;868;0;0;0;0;4;0;1042;0;0;0;0;5;0;4147;2;0;0;0;0;0;6;0;3420;2;0;0;0;0;0;7;0;1435;0;0;0;0;8;0;1612;0;0;0;0;9;0;846;0;0;0;0
28.11.21;19:40:00;1;1070;8993;0;2;0;1947;0;0;0;0;3;0;868;0;0;0;0;4;0;1042;0;0;0;0;5;0;4147;2;0;0;0;0;0;6;0;3420;2;0;0;0;0;0;7;0;1435;0;0;0;0;8;0;1612;0;0;0;0;9;0;846;0;0;0;0
28.11.21;19:35:00;1;1358;8897;0;2;0;1947;0;0;0;0;3;0;868;0;0;0;0;4;0;1042;0;0;0;0;5;0;4147;2;0;0;0;0;0;6;0;3420;2;0;0;0;0;0;7;0;1435;0;0;0;0;8;0;1612;0;0;0;0;9;0;846;0;0;0;0
28.11.21;19:30:00;1;1268;8790;0;2;0;1947;0;0;0;0;3;0;868;0;0;0;0;4;0;1042;0;0;0;0;5;0;4147;2;0;0;0;0;0;6;0;3420;2;0;0;0;0;0;7;0;1435;0;0;0;0;8;0;1612;0;0;0;0;9;0;846;0;0;0;0
28.11.21;19:25:00;1;1246;8684;0;2;0;1947;0;0;0;0;3;0;868;0;0;0;0;4;0;1042;0;0;0;0;5;0;4147;2;0;0;0;0;0;6;0;3420;2;0;0;0;0;0;7;0;1435;0;0;0;0;8;0;1612;0;0;0;0;9;0;846;0;0;0;0
28.11.21;19:20:00;1;1273;8579;0;2;0;1947;0;0;0;0;3;0;868;0;0;0;0;4;0;1042;0;0;0;0;5;0;4147;2;0;0;0;0;0;6;0;3420;2;0;0;0;0;0;7;0;1435;0;0;0;0;8;0;1612;0;0;0;0;9;0;846;0;0;0;0
28.11.21;19:15:00;1;1733;8473;0;2;0;1947;0;0;0;0;3;0;868;0;0;0;0;4;0;1042;0;0;0;0;5;0;4147;2;0;0;0;0;0;6;0;3420;2;0;0;0;0;0;7;0;1435;0;0;0;0;8;0;1612;0;0;0;0;9;0;846;0;0;0;0
28.11.21;19:10:00;1;817;8353;0;2;0;1947;0;0;0;0;3;0;868;0;0;0;0;4;0;1042;0;0;0;0;5;0;4147;2;0;0;0;0;0;6;0;3420;2;0;0;0;0;0;7;0;1435;0;0;0;0;8;0;1612;0;0;0;0;9;0;846;0;0;0;0
28.11.21;19:05:00;1;676;8282;0;2;0;1947;0;0;0;0;3;0;868;0;0;0;0;4;0;1042;0;0;0;0;5;0;4147;2;0;0;0;0;0;6;0;3420;2;0;0;0;0;0;7;0;1435;0;0;0;0;8;0;1612;0;0;0;0;9;0;846;0;0;0;0
28.11.21;19:00:00;1;711;8225;0;2;0;1947;0;0;0;0;3;0;868;0;0;0;0;4;0;1042;0;0;0;0;5;0;4147;2;0;0;0;0;0;6;0;3420;2;0;0;0;0;0;7;0;1435;0;0;0;0;8;0;1612;0;0;0;0;9;0;846;0;0;0;0
28.11.21;18:55:00;1;735;8166;0;2;0;1947;0;0;0;0;3;0;868;0;0;0;0;4;0;1042;0;0;0;0;5;0;4147;2;0;0;0;0;0;6;0;3420;2;0;0;0;0;0;7;0;1435;0;0;0;0;8;0;1612;0;0;0;0;9;0;846;0;0;0;0
28.11.21;18:50:00;1;832;8103;0;2;0;1947;0;0;0;0;3;0;868;0;0;0;0;4;0;1042;0;0;0;0;5;0;4147;2;0;0;0;0;0;6;0;3420;2;0;0;0;0;0;7;0;1435;0;0;0;0;8;0;1612;0;0;0;0;9;0;846;0;0;0;0
28.11.21;18:45:00;1;684;8035;0;2;0;1947;0;0;0;0;3;0;868;0;0;0;0;4;0;1042;0;0;0;0;5;0;4147;2;0;0;0;0;0;6;0;3420;2;0;0;0;0;0;7;0;1435;0;0;0;0;8;0;1612;0;0;0;0;9;0;846;0;0;0;0
28.11.21;18:40:00;1;526;7974;0;2;0;1947;0;0;0;0;3;0;868;0;0;0;0;4;0;1042;0;0;0;0;5;0;4147;2;0;0;0;0;0;6;0;3420;2;0;0;0;0;0;7;0;1435;0;0;0;0;8;0;1612;0;0;0;0;9;0;846;0;0;0;0
28.11.21;18:35:00;1;531;7930;0;2;0;1947;0;0;0;0;3;0;868;0;0;0;0;4;0;1042;0;0;0;0;5;0;4147;2;0;0;0;0;0;6;0;3420;2;0;0;0;0;0;7;0;1435;0;0;0;0;8;0;1612;0;0;0;0;9;0;846;0;0;0;0
28.11.21;18:30:00;1;545;7886;0;2;0;1947;0;0;0;0;3;0;868;0;0;0;0;4;0;1042;0;0;0;0;5;0;4147;2;0;0;0;0;0;6;0;3420;2;0;0;0;0;0;7;0;1435;0;0;0;0;8;0;1612;0;0;0;0;9;0;846;0;0;0;0
28.11.21;18:25:00;1;804;7837;0;2;0;1947;0;0;0;0;3;0;868;0;0;0;0;4;0;1042;0;0;0;0;5;0;4147;2;0;0;0;0;0;6;0;3420;2;0;0;0;0;0;7;0;1435;0;0;0;0;8;0;1612;0;0;0;0;9;0;846;0;0;0;0
28.11.21;18:20:00;1;513;7776;0;2;0;1947;0;0;0;0;3;0;868;0;0;0;0;4;0;1042;0;0;0;0;5;0;4147;2;0;0;0;0;0;6;0;3420;2;0;0;0;0;0;7;0;1435;0;0;0;0;8;0;1612;0;0;0;0;9;0;846;0;0;0;0
28.11.21;18:15:00;1;503;7730;0;2;0;1947;0;0;0;0;3;0;868;0;0;0;0;4;0;1042;0;0;0;0;5;0;4147;2;0;0;0;0;0;6;0;3420;2;0;0;0;0;0;7;0;1435;0;0;0;0;8;0;1612;0;0;0;0;9;0;846;0;0;0;0
28.11.21;18:10:00;1;536;7688;0;2;0;1947;0;0;0;0;3;0;868;0;0;0;0;4;0;1042;0;0;0;0;5;0;4147;2;0;0;0;0;0;6;0;3420;2;0;0;0;0;0;7;0;1435;0;0;0;0;8;0;1612;0;0;0;0;9;0;846;0;0;0;0
28.11.21;18:05:00;1;547;7643;0;2;0;1947;0;0;0;0;3;0;868;0;0;0;0;4;0;1042;0;0;0;0;5;0;4147;2;0;0;0;0;0;6;0;3420;2;0;0;0;0;0;7;0;1435;0;0;0;0;8;0;1612;0;0;0;0;9;0;846;0;0;0;0
28.11.21;18:00:00;1;613;7597;0;2;0;1947;0;0;0;0;3;0;868;0;0;0;0;4;0;1042;0;0;0;0;5;0;4147;2;0;0;0;0;0;6;0;3420;2;0;0;0;0;0;7;0;1435;0;0;0;0;8;0;1612;0;0;0;0;9;0;846;0;0;0;0
28.11.21;17:55:00;1;1052;7543;0;2;0;1947;0;0;0;0;3;0;868;0;0;0;0;4;0;1042;0;0;0;0;5;0;4147;2;0;0;0;0;0;6;0;3420;2;0;0;0;0;0;7;0;1435;0;0;0;0;8;0;1612;0;0;0;0;9;0;846;0;0;0;0
28.11.21;17:50:00;1;975;7469;0;2;0;1947;0;0;0;0;3;0;868;0;0;0;0;4;0;1042;0;0;0;0;5;0;4147;2;0;0;0;0;0;6;0;3420;2;0;0;0;0;0;7;0;1435;0;0;0;0;8;0;1612;0;0;0;0;9;0;846;0;0;0;0
28.11.21;17:45:00;1;1501;7389;0;2;0;1947;0;0;0;0;3;0;868;0;0;0;0;4;0;1042;0;0;0;0;5;0;4147;2;0;0;0;0;0;6;0;3420;2;0;0;0;0;0;7;0;1435;0;0;0;0;8;0;1612;0;0;0;0;9;0;846;0;0;0;0
28.11.21;17:40:00;1;1076;7281;0;2;0;1947;0;0;0;0;3;0;868;0;0;0;0;4;0;1042;0;0;0;0;5;0;4147;2;0;0;0;0;0;6;0;3420;2;0;0;0;0;0;7;0;1435;0;0;0;0;8;0;1612;0;0;0;0;9;0;846;0;0;0;0
28.11.21;17:35:00;1;701;7190;0;2;0;1947;0;0;0;0;3;0;868;0;0;0;0;4;0;1042;0;0;0;0;5;0;4147;2;0;0;0;0;0;6;0;3420;2;0;0;0;0;0;7;0;1435;0;0;0;0;8;0;1612;0;0;0;0;9;0;846;0;0;0;0
28.11.21;17:30:00;1;750;7121;0;2;0;1947;0;0;0;0;3;0;868;0;0;0;0;4;0;1042;0;0;0;0;5;0;4147;2;0;0;0;0;0;6;0;3420;2;0;0;0;0;0;7;0;1435;0;0;0;0;8;0;1612;0;0;0;0;9;0;846;0;0;0;0
28.11.21;17:25:00;1;379;7079;0;2;0;1947;0;0;0;0;3;0;868;0;0;0;0;4;0;1042;0;0;0;0;5;0;4147;2;0;0;0;0;0;6;0;3420;2;0;0;0;0;0;7;0;1435;0;0;0;0;8;0;1612;0;0;0;0;9;0;846;0;0;0;0
28.11.21;17:20:00;1;440;7048;0;2;0;1947;0;0;0;0;3;0;868;0;0;0;0;4;0;1042;0;0;0;0;5;0;4147;2;0;0;0;0;0;6;0;3420;2;0;0;0;0;0;7;0;1435;0;0;0;0;8;0;1612;0;0;0;0;9;0;846;0;0;0;0
28.11.21;17:15:00;1;432;7011;0;2;0;1947;0;0;0;0;3;0;868;0;0;0;0;4;0;1042;0;0;0;0;5;0;4147;2;0;0;0;0;0;6;0;3420;2;0;0;0;0;0;7;0;1435;0;0;0;0;8;0;1612;0;0;0;0;9;0;846;0;0;0;0
28.11.21;17:10:00;1;385;6975;0;2;0;1947;0;0;0;0;3;0;868;0;0;0;0;4;0;1042;0;0;0;0;5;0;4147;2;0;0;0;0;0;6;0;3420;2;0;0;0;0;0;7;0;1435;0;0;0;0;8;0;1612;0;0;0;0;9;0;846;0;0;0;0
28.11.21;17:05:00;1;389;6943;0;2;0;1947;0;0;0;0;3;0;868;0;0;0;0;4;0;1042;0;0;0;0;5;0;4147;2;0;0;0;0;0;6;0;3420;2;0;0;0;0;0;7;0;1435;0;0;0;0;8;0;1612;0;0;0;0;9;0;846;0;0;0;0
28.11.21;17:00:00;1;809;6911;0;2;0;1947;0;0;0;0;3;0;868;0;0;0;0;4;0;1042;0;0;0;0;5;0;4147;2;0;0;0;0;0;6;0;3420;2;0;0;0;0;0;7;0;1435;0;0;0;0;8;0;1612;0;0;0;0;9;0;846;0;0;0;0
28.11.21;16:55:00;1;426;6862;0;2;0;1947;0;0;0;0;3;0;868;0;0;0;0;4;0;1042;0;0;0;0;5;0;4147;2;0;0;0;0;0;6;0;3420;2;0;0;0;0;0;7;0;1435;0;0;0;0;8;0;1612;0;0;0;0;9;0;846;0;0;0;0
28.11.21;16:50:00;1;451;6826;0;2;0;1947;0;0;0;0;3;0;868;0;0;0;0;4;0;1042;0;0;0;0;5;0;4147;2;0;0;0;0;0;6;0;3420;2;0;0;0;0;0;7;0;1435;0;0;0;0;8;0;1612;0;0;0;0;9;0;846;0;0;0;0
28.11.21;16:45:00;1;386;6790;0;2;0;1947;0;0;0;0;3;0;868;0;0;0;0;4;0;1042;0;0;0;0;5;0;4147;2;0;0;0;0;0;6;0;3420;2;0;0;0;0;0;7;0;1435;0;0;0;0;8;0;1612;0;0;0;0;9;0;846;0;0;0;0
28.11.21;16:40:00;1;397;6757;0;2;0;1947;0;0;0;0;3;0;868;0;0;110;5;4;0;1042;0;0;0;0;5;0;4147;2;0;0;0;0;0;6;0;3420;2;0;0;0;0;0;7;0;1435;0;0;0;0;8;0;1612;0;0;0;0;9;0;846;0;0;0;0
28.11.21;16:35:00;1;375;6724;0;2;0;1947;0;0;224;7;3;0;868;6;0;294;12;4;0;1042;0;0;0;0;5;0;4147;2;0;0;0;0;0;6;0;3420;2;0;0;0;0;0;7;0;1435;0;0;0;0;8;0;1612;0;0;0;0;9;0;846;0;0;0;0
28.11.21;16:30:00;1;351;6693;0;2;0;1947;6;0;309;9;3;0;868;6;0;363;13;4;0;1042;2;0;81;8;5;0;4147;2;0;1;95;95;6;6;0;3420;2;0;0;0;0;0;7;0;1435;0;0;0;0;8;0;1612;0;0;0;0;9;0;846;0;0;0;0
28.11.21;16:25:00;1;376;6664;0;2;0;1947;6;0;343;10;3;0;868;6;1;397;13;4;0;1042;1;0;116;8;5;0;4147;2;0;0;292;290;19;6;0;3420;1;0;0;293;290;17;7;0;1435;0;0;50;2;8;0;1612;0;0;101;5;9;0;846;0;0;211;7
28.11.21;16:20:00;1;371;6632;0;2;0;1947;6;0;366;10;3;0;868;6;1;443;13;4;0;1042;1;0;149;8;5;0;4147;26;0;0;402;484;24;6;0;3420;26;0;0;514;509;22;7;0;1435;6;0;287;13;8;0;1612;6;0;301;13;9;0;846;6;0;318;9
28.11.21;16:15:00;1;309;6601;0;2;0;1947;6;0;378;10;3;0;868;6;2;458;13;4;0;1042;1;0;169;9;5;0;4147;26;0;0;417;547;24;6;0;3420;26;0;0;552;546;22;7;0;1435;6;0;326;13;8;0;1612;6;0;340;13;9;0;846;6;0;361;9
28.11.21;16:10:00;1;373;6575;0;2;0;1947;6;0;395;10;3;0;868;6;0;484;13;4;0;1042;1;0;203;9;5;8;4147;1;0;1;420;661;24;6;0;3420;26;0;0;586;575;22;7;0;1435;6;0;382;14;8;0;1612;6;0;396;13;9;0;846;6;0;414;10
28.11.21;16:05:00;1;1011;6543;0;2;0;1947;6;0;404;11;3;1;868;3;3;493;13;4;0;1042;1;0;221;9;5;42;4146;1;4;8;400;634;25;6;9;3420;4;0;2;581;567;23;7;0;1435;6;0;406;14;8;0;1612;6;0;418;14;9;0;846;6;0;451;10
28.11.21;16:00:00;1;471;6487;0;2;1;1947;6;7;409;11;3;2;867;6;4;518;14;4;0;1042;3;0;199;10;5;89;4142;4;20;21;375;596;26;6;70;3419;4;7;19;534;519;24;7;0;1435;6;1;452;14;8;0;1612;6;1;459;14;9;0;846;6;1;497;10
28.11.21;15:55:00;1;378;6448;0;2;6;1947;6;11;414;11;3;0;867;6;7;526;14;4;0;1042;3;0;199;10;5;120;4134;4;40;36;376;596;26;6;91;3413;4;4;32;534;519;24;7;2;1435;6;5;473;15;8;0;1612;3;5;477;14;9;2;846;3;4;525;10
28.11.21;15:50:00;1;324;6417;0;2;47;1946;4;78;374;12;3;2;867;6;8;543;14;4;18;1042;3;19;199;10;5;158;4124;4;58;58;376;596;26;6;123;3405;4;20;46;534;519;24;7;0;1435;6;0;518;15;8;13;1612;6;20;465;15;9;3;846;6;6;551;10
28.11.21;15:45:00;1;374;6390;0;2;65;1942;4;96;378;12;3;4;867;6;12;545;14;4;21;1040;3;22;198;10;5;179;4110;4;72;64;376;596;26;6;140;3395;4;26;59;534;519;24;7;54;1435;4;66;350;15;8;50;1611;4;77;377;15;9;4;846;6;9;554;10
28.11.21;15:40:00;1;379;6358;0;2;78;1937;4;106;365;12;3;0;867;6;0;576;14;4;21;1038;3;22;198;10;5;194;4095;4;81;70;376;596;26;6;149;3383;4;41;59;534;518;24;7;54;1430;4;76;364;15;8;53;1607;4;84;422;15;9;4;846;6;8;561;11
28.11.21;15:35:00;1;389;6326;0;2;100;1930;4;132;382;13;3;7;867;3;13;554;14;4;36;1037;3;38;197;10;5;239;4079;4;105;92;375;596;26;6;182;3370;4;53;78;534;519;24;7;61;1426;4;88;444;15;8;69;1602;4;100;443;15;9;8;845;6;12;563;11
28.11.21;15:30:00;1;374;6294;0;2;156;1922;4;191;389;13;3;75;866;4;113;486;15;4;73;1034;3;76;198;10;5;321;4058;4;150;127;376;596;26;6;246;3354;4;95;111;534;518;24;7;113;1420;4;145;418;15;8;134;1596;4;164;411;15;9;66;845;6;90;504;11
28.11.21;15:25:00;1;375;6262;0;2;164;1909;4;198;382;13;3;79;860;4;118;493;15;4;80;1028;3;83;199;10;5;349;4031;4;167;142;384;596;26;6;266;3334;4;98;125;534;519;24;7;125;1411;4;157;372;15;8;149;1585;4;183;435;15;9;84;840;4;110;475;12
28.11.21;15:20:00;1;403;6231;0;2;222;1895;4;259;387;14;3;109;853;4;150;542;15;4;123;1021;5;128;232;10;5;481;4001;4;235;194;414;617;26;6;346;3311;4;138;161;534;519;24;7;172;1401;4;208;434;16;8;200;1573;4;239;459;15;9;116;833;4;145;515;12
28.11.21;15:15:00;1;418;6196;0;2;256;1877;4;294;392;14;3;125;844;4;169;552;15;4;141;1011;5;147;233;10;5;553;3960;4;273;232;413;618;26;6;402;3282;4;168;194;534;524;24;7;197;1386;4;242;440;16;8;246;1556;4;284;459;15;9;143;823;4;173;541;12
28.11.21;15:10:00;1;468;6160;0;2;317;1856;4;358;395;15;3;164;834;4;206;545;16;4;188;999;5;196;240;10;5;671;3914;4;330;281;418;690;26;6;493;3248;4;206;237;544;566;24;7;209;1370;4;248;446;16;8;253;1536;4;294;464;15;9;145;811;4;176;531;12
28.11.21;15:05:00;1;445;6121;0;2;366;1830;4;409;406;15;3;184;820;4;225;518;16;4;199;983;5;207;237;10;5;713;3856;4;345;297;422;696;26;6;522;3206;4;206;249;572;547;24;7;226;1352;4;271;492;16;8;286;1515;4;321;492;15;9;165;799;4;193;457;12
28.11.21;15:00:00;1;415;6084;0;2;2179;1798;4;2290;421;16;3;939;804;4;1008;492;16;4;523;967;5;544;228;10;5;3220;3785;4;1704;1442;455;735;26;6;2326;3154;4;1140;1124;633;592;24;7;1632;1334;4;1718;546;15;8;1814;1491;4;1905;509;15;9;831;785;4;885;430;13
28.11.21;14:55:00;1;461;6049;0;2;2256;1618;4;2366;398;15;3;1047;727;4;1124;525;16;4;591;924;5;616;238;10;5;3572;3508;4;1894;1605;459;739;26;6;2778;2947;4;1378;1342;637;600;24;7;1871;1206;4;1983;558;15;8;2026;1348;4;2120;520;15;9;1030;720;4;1094;464;12
28.11.21;14:50:00;1;373;6012;0;2;1071;1429;4;1136;396;14;3;541;640;4;604;572;15;4;462;875;5;481;253;10;5;2100;3211;4;1101;921;450;740;26;6;1700;2715;4;816;809;631;586;23;7;965;1050;4;1018;523;15;8;1111;1178;4;1171;530;15;9;621;634;4;675;527;12
28.11.21;14:45:00;1;352;5981;0;2;1760;1336;4;1849;385;14;3;842;593;4;917;594;16;4;599;836;5;624;254;10;5;2964;3044;4;1579;1298;456;748;25;6;2302;2578;4;1120;1119;638;589;23;7;1147;964;4;1205;553;15;8;1269;1080;4;1344;548;14;9;716;579;4;774;554;12
28.11.21;14:40:00;1;477;5948;0;2;2010;1188;4;2106;382;13;3;941;522;4;1022;599;15;4;616;785;5;641;244;10;5;3634;2772;4;1998;1591;461;774;25;6;3007;2363;4;1438;1501;659;603;23;7;1511;866;4;1588;553;14;8;1696;971;4;1785;558;14;9;925;518;4;993;557;11
28.11.21;14:35:00;1;506;5908;0;2;1787;1019;4;1873;381;12;3;766;442;4;837;580;14;4;517;733;5;538;254;10;5;3075;2476;4;1668;1353;471;779;25;6;2737;2116;4;1270;1406;652;604;23;7;1462;739;4;1538;535;14;8;1685;829;4;1779;551;14;9;905;440;4;974;566;11
28.11.21;14:30:00;1;522;5865;0;2;431;871;4;466;364;11;3;182;379;4;228;576;14;4;274;691;5;286;256;10;5;962;2246;4;502;406;443;751;25;6;830;1921;4;339;416;641;583;23;7;456;617;4;506;523;14;8;594;688;4;652;523;14;9;399;364;4;440;539;10
28.11.21;14:25:00;1;476;5822;0;2;344;835;4;375;356;11;3;137;363;4;182;569;14;4;247;668;5;257;254;10;5;814;2163;4;410;353;445;746;25;6;715;1851;4;283;359;640;571;23;7;144;577;4;190;518;14;8;181;636;4;216;510;14;9;109;328;4;135;546;10
28.11.21;14:20:00;1;351;5784;0;2;355;806;4;390;354;11;3;146;352;4;191;567;14;4;266;647;5;277;253;10;5;844;2095;4;425;363;443;747;25;6;730;1793;4;295;366;633;589;23;7;229;566;4;260;486;14;8;254;621;4;293;504;14;9;149;319;4;179;556;10
28.11.21;14:15:00;1;393;5754;0;2;417;777;4;453;353;11;3;179;340;4;222;555;14;4;320;625;5;333;256;10;5;1027;2022;4;501;434;450;740;25;6;865;1731;4;357;434;644;590;23;7;302;547;4;337;495;14;8;342;600;4;388;528;14;9;205;307;4;235;570;10
28.11.21;14:10:00;1;397;5721;0;2;477;742;4;510;354;11;3;212;325;4;256;570;14;4;382;599;5;397;260;10;5;1203;1938;4;619;516;467;757;25;6;1030;1659;4;429;527;639;606;23;7;351;522;4;382;528;14;8;400;571;4;438;529;14;9;230;290;4;266;565;10
28.11.21;14:05:00;1;410;5688;0;2;563;703;4;601;373;11;3;258;307;4;306;567;14;4;454;567;5;473;263;9;5;1434;1836;4;718;629;472;765;24;6;1235;1572;4;516;637;649;606;23;7;332;493;4;386;535;14;8;404;539;4;443;538;14;9;239;271;4;268;579;10
28.11.21;14:00:00;1;409;5654;0;2;586;656;4;627;365;11;3;280;286;4;329;577;14;4;491;529;5;511;263;9;5;1505;1716;4;772;662;470;766;24;6;1316;1467;4;561;680;646;617;23;7;382;465;4;417;525;14;8;441;504;4;486;533;14;9;255;251;4;288;588;10
28.11.21;13:55:00;1;365;5620;0;2;452;607;4;488;397;11;3;232;263;4;277;573;14;4;391;489;5;407;262;9;5;1211;1588;4;626;541;465;757;24;6;1092;1355;4;455;564;642;616;23;7;318;433;4;364;535;14;8;380;468;4;433;537;14;9;222;230;4;257;581;10
28.11.21;13:50:00;1;347;5590;0;2;347;570;4;382;394;11;3;174;243;4;219;572;13;4;304;456;5;317;248;9;5;1032;1491;4;519;455;468;751;24;6;892;1269;4;361;459;627;614;23;7;232;407;4;267;500;14;8;266;437;4;306;504;13;9;152;212;4;181;560;9
28.11.21;13:45:00;1;775;5551;0;2;221;541;4;249;386;11;3;105;229;4;146;554;13;4;183;431;5;191;239;9;5;644;1407;4;309;286;437;738;24;6;535;1195;4;201;293;538;600;23;7;132;388;4;156;497;14;8;148;415;4;179;508;13;9;55;199;4;71;541;9
28.11.21;13:40:00;1;402;5503;0;2;223;522;4;252;386;11;3;104;220;4;148;564;13;4;176;416;5;183;242;9;5;614;1355;4;287;270;431;730;24;6;502;1152;4;184;273;544;602;23;7;123;376;4;163;512;14;8;150;402;4;190;505;13;9;75;194;6;100;554;9